WARP-01

Last updated on Sun May 01 2022 00:03:21 GMT+0000 (Coordinated Universal Time)

1 47924U 98067SA 22120.38981539 .05915157 12162-4 14541-2 0 9995 2 47924 51.6129 179.9618 0007817 342.8094 17.2662 16.28371436 64359

Satellite not in orbit